STARLINK-4127, 53258

Orbit data source: Space-Track

STARLINK-4127, 53258 is a payload satellite owned by SpaceX/Seattle (US) in LEO that was launched on Sun, 24 Jul 2022 UTC via an FALCON 9 launch vehicle from the Air Force Eastern Test Range (AFETR). Payload-class satellites include a variety of spacecraft equipped with specific instruments for various scientific and technological missions. These include communications satellites like Starlink; space stations such as the ISS; scientific satellites like the Hubble; Earth observation satellites from companies like Planet Labs, Umbra, and HawkEye 360; GPS; miniature CubeSats for education and research; and military/defense satellites.

Loading next visibility...
Identifier
53258, 2022-086S
Orbit
LEO
Country
Flag of USUS
Related business
Manufacturer
SpaceX/Seattle
Mission
Operational Commercial Communications
Bus & Motor
STARLINK, Unknown motor
Mass
297 kg wet, ~275 kg dry
Launch date (UTC)
2022-07-24 (4 years ago)
Launch vehicle
FALCON 9
Launch site
Air Force Eastern Test Range (AFETR)
Object type
Payload
Rocket body
Debris
Shape & HBR
Box + 1 Pan, 10.1 m
Radar Cross Section
13.562 m², Large (>1 m²)

Expand to show TLE details & history
Last TLE update: 2 days ago

TLE from 2 days ago
0 STARLINK-4127
1 53258U 22086S   26171.16096438 -.00000512  00000-0 -14049-4 0  9997
2 53258  53.1615  93.9973 0001858 112.1484 247.9705 15.08825616216532
Epoch: 2026-06-20T03:51Z
TLE epoch observation values (Epoch: 2026-06-20T03:51:47.322Z)
Latitude
-0°
Longitude
127.67056°
Altitude
541.161 km
Speed
7.593 km/s
True Right ascension
06h 15m 59s
True Declination
0° 00' 00"
Sunlit
Object was in daylight at epoch
Visualization orbit readout
Latitude
Unknown
Longitude
Unknown
Altitude
Unknown
Speed
Unknown
Apparent Right ascension
Unknown
Apparent Declination
Unknown
Sunlit
N/A
Visualization observer readout
Local Sidereal Time
21:23:56
Azimuth
Unknown
Elevation
Unknown
Doppler factor
Unknown
Orbital elements
Apogee altitude
541.327 km
Perigee altitude
538.756 km
Semi-major axis
6,918.178 km
Eccentricity
0.00019
Inclination
53.1615°
RAAN
93.9973°
Arg. of periapsis
112.1484°
True anomaly
247.95077°
Mean anomaly
247.9705°
Eccentric anomaly
247.96063°
Mean motion
3.77186 °/min
Orbital period
95.44 mins
BSTAR
-0.000014049
Loading maneuver chart data...
Computing Atmospheric mass density...
Loading historical data...
Loading historical data...
Loading historical data...
Loading historical data...
Loading historical data...
Loading historical data...
Loading historical data...

Documentation

Showing up to 5 results
|